| time (UTC) | temp C | wind direction | speed KPH | gust KPH | rain 1hr cm | rain 24hr cm | rain mn cm | humidity % | barometer mb |
| 20260505040006 | 3 | 77 | 0.0 | 0.0 | 0.00 | 0.00 | 0.00 | 72 | 1013.9 |
| 20260505035501 | 3 | 77 | 0.0 | 0.0 | 0.00 | 0.00 | 0.00 | 71 | 1014.2 |
| 20260505034959 | 3 | 77 | 0.0 | 0.0 | 0.00 | 0.00 | 0.00 | 71 | 1014.3 |
| 20260505034455 | 3 | 77 | 0.0 | 0.0 | 0.00 | 0.00 | 0.00 | 70 | 1014.2 |
| 20260505033952 | 4 | 77 | 0.0 | 0.0 | 0.00 | 0.00 | 0.00 | 70 | 1014.0 |
| 20260505033449 | 4 | 78 | 0.0 | 0.0 | 0.00 | 0.00 | 0.00 | 69 | 1014.0 |
| 20260505032947 | 4 | 78 | 0.0 | 0.0 | 0.00 | 0.00 | 0.00 | 69 | 1014.2 |
| 20260505032444 | 4 | 78 | 0.0 | 0.0 | 0.00 | 0.00 | 0.00 | 68 | 1014.0 |
| 20260505031940 | 5 | 77 | 0.0 | 0.0 | 0.00 | 0.00 | 0.00 | 67 | 1013.9 |
| 20260505031437 | 5 | 79 | 0.0 | 0.0 | 0.00 | 0.00 | 0.00 | 66 | 1013.9 |
| 20260505030934 | 5 | 82 | 0.0 | 0.0 | 0.00 | 0.00 | 0.00 | 65 | 1013.8 |
| 20260505030430 | 5 | 87 | 0.0 | 0.0 | 0.00 | 0.00 | 0.00 | 64 | 1013.8 |
| 20260505025926 | 6 | 91 | 0.0 | 0.0 | 0.00 | 0.00 | 0.00 | 62 | 1014.0 |
| 20260505025423 | 6 | 92 | 0.0 | 0.0 | 0.00 | 0.00 | 0.00 | 61 | 1013.9 |
| 20260505024922 | 6 | 92 | 0.0 | 0.0 | 0.00 | 0.00 | 0.00 | 59 | 1013.8 |
| 20260505024419 | 6 | 96 | 0.0 | 0.0 | 0.00 | 0.00 | 0.00 | 59 | 1013.8 |
| 20260505023916 | 7 | 93 | 0.0 | 0.0 | 0.00 | 0.00 | 0.00 | 57 | 1013.9 |
| 20260505023413 | 7 | 91 | 0.0 | 0.0 | 0.00 | 0.00 | 0.00 | 57 | 1013.8 |
| 20260505022910 | 7 | 93 | 1.6 | 3.2 | 0.00 | 0.00 | 0.00 | 54 | 1013.8 |
| 20260505022408 | 7 | 46 | 1.6 | 3.2 | 0.00 | 0.00 | 0.00 | 54 | 1013.4 |
| 20260505021904 | 7 | 86 | 1.6 | 4.8 | 0.00 | 0.00 | 0.00 | 51 | 1013.8 |
| 20260505021401 | 7 | 78 | 0.0 | 3.2 | 0.00 | 0.00 | 0.00 | 50 | 1013.7 |
| 20260505020857 | 7 | 78 | 0.0 | 0.0 | 0.00 | 0.00 | 0.00 | 50 | 1013.5 |
| 20260505020352 | 7 | 77 | 0.0 | 0.0 | 0.00 | 0.00 | 0.00 | 51 | 1013.5 |
| 20260505015850 | 8 | 69 | 3.2 | 3.2 | 0.00 | 0.00 | 0.00 | 49 | 1013.7 |
| 20260505015346 | 8 | 79 | 0.0 | 1.6 | 0.00 | 0.00 | 0.00 | 48 | 1013.7 |
| 20260505014844 | 8 | 85 | 0.0 | 1.6 | 0.00 | 0.00 | 0.00 | 47 | 1013.7 |
| 20260505014341 | 8 | 83 | 0.0 | 4.8 | 0.00 | 0.00 | 0.00 | 45 | 1013.4 |
| 20260505013837 | 8 | 98 | 1.6 | 3.2 | 0.00 | 0.00 | 0.00 | 43 | 1013.5 |
| 20260505013334 | 8 | 86 | 0.0 | 0.0 | 0.00 | 0.00 | 0.00 | 47 | 1013.5 |
| 20260505012833 | 8 | 86 | 0.0 | 3.2 | 0.00 | 0.00 | 0.00 | 46 | 1013.5 |
| 20260505012330 | 9 | 90 | 0.0 | 0.0 | 0.00 | 0.00 | 0.00 | 44 | 1013.5 |
| 20260505011826 | 9 | 78 | 0.0 | 0.0 | 0.00 | 0.00 | 0.00 | 44 | 1013.5 |
| 20260505011323 | 9 | 78 | 0.0 | 0.0 | 0.00 | 0.00 | 0.00 | 41 | 1013.8 |
| 20260505010819 | 9 | 78 | 0.0 | 0.0 | 0.00 | 0.00 | 0.00 | 41 | 1013.7 |
| 20260505010315 | 9 | 85 | 0.0 | 0.0 | 0.00 | 0.00 | 0.00 | 44 | 1013.9 |
| 20260505005812 | 9 | 85 | 0.0 | 0.0 | 0.00 | 0.00 | 0.00 | 46 | 1013.9 |
| 20260505005309 | 9 | 84 | 0.0 | 0.0 | 0.00 | 0.00 | 0.00 | 45 | 1013.5 |
| 20260505004806 | 9 | 84 | 0.0 | 0.0 | 0.00 | 0.00 | 0.00 | 46 | 1013.8 |
| 20260505004302 | 8 | 91 | 0.0 | 0.0 | 0.00 | 0.00 | 0.00 | 42 | 1014.0 |
| 20260505003800 | 8 | 91 | 0.0 | 1.6 | 0.00 | 0.00 | 0.00 | 43 | 1013.9 |
| 20260505003257 | 8 | 89 | 0.0 | 0.0 | 0.00 | 0.00 | 0.00 | 44 | 1014.0 |
| 20260505002753 | 8 | 89 | 0.0 | 0.0 | 0.00 | 0.00 | 0.00 | 48 | 1014.2 |
| 20260505002250 | 8 | 88 | 0.0 | 0.0 | 0.00 | 0.00 | 0.00 | 46 | 1014.2 |
| 20260505001748 | 7 | 74 | 0.0 | 0.0 | 0.00 | 0.00 | 0.00 | 48 | 1014.2 |
| 20260505001245 | 7 | 80 | 0.0 | 0.0 | 0.00 | 0.00 | 0.00 | 48 | 1014.4 |
| 20260505000742 | 7 | 76 | 1.6 | 3.2 | 0.00 | 0.00 | 0.00 | 48 | 1014.4 |
| 20260505000240 | 7 | 42 | 3.2 | 4.8 | 0.00 | 0.00 | 0.00 | 53 | 1014.5 |
| 20260504235736 | 7 | 58 | 3.2 | 3.2 | 0.00 | 0.00 | 0.00 | 54 | 1014.5 |
| 20260504235232 | 6 | 349 | 4.8 | 6.4 | 0.00 | 0.00 | 0.00 | 55 | 1014.8 |
| 20260504234730 | 6 | 337 | 4.8 | 12.9 | 0.00 | 0.00 | 0.00 | 60 | 1014.9 |
| 20260504234227 | 6 | 66 | 3.2 | 11.3 | 0.00 | 0.00 | 0.00 | 68 | 1015.2 |
| 20260504233724 | 6 | 43 | 3.2 | 12.9 | 0.00 | 0.00 | 0.00 | 68 | 1015.3 |
| 20260504233219 | 6 | 76 | 1.6 | 12.9 | 0.00 | 0.00 | 0.00 | 68 | 1014.9 |
| 20260504232717 | 6 | 338 | 11.3 | 14.5 | 0.00 | 0.00 | 0.00 | 67 | 1015.2 |
| 20260504232213 | 6 | 343 | 4.8 | 9.7 | 0.00 | 0.00 | 0.00 | 67 | 1015.3 |
| 20260504231710 | 6 | 6 | 8.0 | 11.3 | 0.00 | 0.00 | 0.00 | 65 | 1014.9 |
| 20260504231207 | 7 | 69 | 6.4 | 12.9 | 0.00 | 0.00 | 0.00 | 61 | 1015.0 |
| 20260504230703 | 7 | 58 | 3.2 | 20.9 | 0.00 | 0.00 | 0.00 | 58 | 1015.0 |
| 20260504230202 | 8 | 33 | 8.0 | 16.1 | 0.00 | 0.00 | 0.00 | 55 | 1015.0 |
| 20260504225700 | 8 | 334 | 6.4 | 9.7 | 0.00 | 0.00 | 0.00 | 54 | 1014.9 |
| 20260504225155 | 8 | 81 | 6.4 | 9.7 | 0.00 | 0.00 | 0.00 | 51 | 1014.8 |
| 20260504224653 | 8 | 81 | 1.6 | 3.2 | 0.00 | 0.00 | 0.00 | 51 | 1014.8 |
| 20260504224149 | 9 | 123 | 3.2 | 9.7 | 0.00 | 0.00 | 0.00 | 51 | 1014.7 |
| 20260504223647 | 9 | 86 | 0.0 | 3.2 | 0.00 | 0.00 | 0.00 | 53 | 1014.8 |
| 20260504223142 | 9 | 46 | 6.4 | 6.4 | 0.00 | 0.00 | 0.00 | 51 | 1014.8 |
| 20260504222639 | 10 | 15 | 3.2 | 11.3 | 0.00 | 0.00 | 0.00 | 49 | 1014.7 |
| 20260504222136 | 10 | 102 | 3.2 | 4.8 | 0.00 | 0.00 | 0.00 | 49 | 1014.8 |
| 20260504221633 | 10 | 160 | 3.2 | 4.8 | 0.00 | 0.00 | 0.00 | 39 | 1014.7 |
| 20260504221130 | 11 | 66 | 3.2 | 6.4 | 0.00 | 0.00 | 0.00 | 37 | 1014.5 |
| 20260504220626 | 11 | 91 | 0.0 | 1.6 | 0.00 | 0.00 | 0.00 | 36 | 1014.7 |
| 20260504220125 | 12 | 268 | 3.2 | 4.8 | 0.00 | 0.00 | 0.00 | 34 | 1014.4 |
| 20260504215620 | 12 | 92 | 1.6 | 11.3 | 0.00 | 0.00 | 0.00 | 33 | 1014.4 |
| 20260504215118 | 13 | 82 | 0.0 | 3.2 | 0.00 | 0.00 | 0.00 | 31 | 1014.3 |
| 20260504214614 | 12 | 61 | 1.6 | 4.8 | 0.00 | 0.00 | 0.00 | 29 | 1014.3 |
| 20260504214110 | 13 | 103 | 6.4 | 9.7 | 0.00 | 0.00 | 0.00 | 30 | 1014.4 |
| 20260504213607 | 14 | 47 | 4.8 | 9.7 | 0.00 | 0.00 | 0.00 | 30 | 1014.2 |
| 20260504213104 | 13 | 248 | 4.8 | 6.4 | 0.00 | 0.00 | 0.00 | 33 | 1014.2 |
| 20260504212559 | 13 | 22 | 4.8 | 6.4 | 0.00 | 0.00 | 0.00 | 32 | 1014.2 |
| 20260504212057 | 12 | 77 | 1.6 | 3.2 | 0.00 | 0.00 | 0.00 | 34 | 1014.5 |
| 20260504211554 | 11 | 65 | 3.2 | 4.8 | 0.00 | 0.00 | 0.00 | 35 | 1014.5 |
| 20260504211051 | 11 | 80 | 0.0 | 1.6 | 0.00 | 0.00 | 0.00 | 35 | 1014.8 |
| 20260504210548 | 11 | 48 | 0.0 | 4.8 | 0.00 | 0.00 | 0.00 | 35 | 1014.8 |
| 20260504210044 | 11 | 72 | 1.6 | 6.4 | 0.00 | 0.00 | 0.00 | 38 | 1014.8 |
| 20260504205542 | 11 | 66 | 0.0 | 6.4 | 0.00 | 0.00 | 0.00 | 38 | 1015.0 |
| 20260504205040 | 11 | 77 | 1.6 | 11.3 | 0.00 | 0.00 | 0.00 | 38 | 1015.0 |
| 20260504204538 | 11 | 43 | 1.6 | 4.8 | 0.00 | 0.00 | 0.00 | 36 | 1014.9 |
| 20260504204037 | 11 | 77 | 0.0 | 3.2 | 0.00 | 0.00 | 0.00 | 38 | 1015.0 |
| 20260504203534 | 11 | 58 | 0.0 | 1.6 | 0.00 | 0.00 | 0.00 | 37 | 1015.2 |
| 20260504203032 | 11 | 87 | 0.0 | 0.0 | 0.00 | 0.00 | 0.00 | 39 | 1014.9 |
| 20260504202527 | 11 | 73 | 0.0 | 0.0 | 0.00 | 0.00 | 0.00 | 37 | 1015.2 |
| 20260504202024 | 10 | 85 | 0.0 | 3.2 | 0.00 | 0.00 | 0.00 | 38 | 1015.3 |
| 20260504201521 | 10 | 103 | 1.6 | 1.6 | 0.00 | 0.00 | 0.00 | 38 | 1015.3 |
| 20260504201019 | 10 | 106 | 3.2 | 4.8 | 0.00 | 0.00 | 0.00 | 37 | 1015.4 |
| 20260504200515 | 10 | 73 | 1.6 | 9.7 | 0.00 | 0.00 | 0.00 | 39 | 1015.6 |
| 20260504200012 | 10 | 67 | 3.2 | 11.3 | 0.00 | 0.00 | 0.00 | 39 | 1015.3 |
| 20260504195508 | 10 | 100 | 1.6 | 6.4 | 0.00 | 0.00 | 0.00 | 39 | 1015.3 |
| 20260504195005 | 10 | 102 | 3.2 | 3.2 | 0.00 | 0.00 | 0.00 | 38 | 1015.4 |
| 20260504194501 | 10 | 125 | 6.4 | 6.4 | 0.00 | 0.00 | 0.00 | 39 | 1015.6 |
| 20260504193956 | 10 | 139 | 4.8 | 6.4 | 0.00 | 0.00 | 0.00 | 42 | 1015.8 |
| 20260504193454 | 10 | 97 | 0.0 | 4.8 | 0.00 | 0.00 | 0.00 | 41 | 1015.7 |
| 20260504192953 | 10 | 96 | 0.0 | 3.2 | 0.00 | 0.00 | 0.00 | 41 | 1015.6 |
| 20260504192449 | 10 | 110 | 1.6 | 6.4 | 0.00 | 0.00 | 0.00 | 40 | 1015.4 |
| 20260504191948 | 10 | 128 | 1.6 | 3.2 | 0.00 | 0.00 | 0.00 | 40 | 1015.8 |
| 20260504191446 | 10 | 112 | 1.6 | 9.7 | 0.00 | 0.00 | 0.00 | 39 | 1015.8 |
| 20260504190941 | 10 | 155 | 3.2 | 4.8 | 0.00 | 0.00 | 0.00 | 39 | 1015.7 |
| 20260504190437 | 10 | 148 | 6.4 | 6.4 | 0.00 | 0.00 | 0.00 | 40 | 1015.7 |
| 20260504185934 | 10 | 106 | 1.6 | 3.2 | 0.00 | 0.00 | 0.00 | 43 | 1015.7 |
| 20260504185431 | 10 | 93 | 1.6 | 3.2 | 0.00 | 0.00 | 0.00 | 41 | 1015.8 |
| 20260504184927 | 10 | 88 | 0.0 | 1.6 | 0.00 | 0.00 | 0.00 | 43 | 1015.7 |
| 20260504184423 | 10 | 88 | 1.6 | 4.8 | 0.00 | 0.00 | 0.00 | 43 | 1015.8 |
| 20260504183919 | 11 | 63 | 3.2 | 6.4 | 0.00 | 0.00 | 0.00 | 41 | 1015.7 |
| 20260504183416 | 11 | 100 | 0.0 | 3.2 | 0.00 | 0.00 | 0.00 | 41 | 1015.6 |
| 20260504182914 | 11 | 97 | 0.0 | 3.2 | 0.00 | 0.00 | 0.00 | 42 | 1015.7 |
| 20260504182411 | 11 | 139 | 6.4 | 6.4 | 0.00 | 0.00 | 0.00 | 42 | 1015.8 |
| 20260504181908 | 11 | 351 | 4.8 | 9.7 | 0.00 | 0.00 | 0.00 | 37 | 1015.7 |
| 20260504181405 | 12 | 88 | 1.6 | 9.7 | 0.00 | 0.00 | 0.00 | 33 | 1015.6 |
| 20260504180904 | 12 | 83 | 0.0 | 4.8 | 0.00 | 0.00 | 0.00 | 32 | 1015.7 |
| 20260504180402 | 13 | 60 | 3.2 | 6.4 | 0.00 | 0.00 | 0.00 | 30 | 1015.6 |
| 20260504175900 | 13 | 107 | 4.8 | 9.7 | 0.00 | 0.00 | 0.00 | 30 | 1015.6 |
| 20260504175356 | 11 | 39 | 3.2 | 3.2 | 0.00 | 0.00 | 0.00 | 34 | 1015.7 |
| 20260504174854 | 11 | 63 | 1.6 | 6.4 | 0.00 | 0.00 | 0.00 | 32 | 1015.8 |
| 20260504174352 | 11 | 78 | 0.0 | 3.2 | 0.00 | 0.00 | 0.00 | 34 | 1015.7 |
| 20260504173849 | 12 | 188 | 4.8 | 6.4 | 0.00 | 0.00 | 0.00 | 35 | 1015.9 |
| 20260504173345 | 12 | 109 | 0.0 | 6.4 | 0.00 | 0.00 | 0.00 | 33 | 1015.9 |
| 20260504172842 | 12 | 286 | 4.8 | 6.4 | 0.00 | 0.00 | 0.00 | 31 | 1015.9 |
| 20260504172339 | 11 | 75 | 1.6 | 3.2 | 0.00 | 0.00 | 0.00 | 33 | 1015.9 |
| 20260504171835 | 12 | 78 | 0.0 | 6.4 | 0.00 | 0.00 | 0.00 | 32 | 1016.2 |
| 20260504171332 | 11 | 77 | 3.2 | 6.4 | 0.00 | 0.00 | 0.00 | 33 | 1015.9 |
| 20260504170829 | 11 | 324 | 1.6 | 4.8 | 0.00 | 0.00 | 0.00 | 37 | 1016.1 |
| 20260504170326 | 11 | 79 | 3.2 | 4.8 | 0.00 | 0.00 | 0.00 | 38 | 1016.2 |
| 20260504160244 | 10 | 105 | 4.8 | 4.8 | 0.00 | 0.00 | 0.00 | 39 | 1016.3 |
| 20260504150710 | 8 | 89 | 0.0 | 4.8 | 0.00 | 0.00 | 0.00 | 51 | 1016.4 |
| 20260504150207 | 7 | 105 | 1.6 | 3.2 | 0.00 | 0.00 | 0.00 | 49 | 1016.6 |
| 20260504141136 | 6 | 95 | 0.0 | 0.0 | 0.00 | 0.00 | 0.00 | 51 | 1016.7 |
| 20260504140632 | 6 | 109 | 0.0 | 1.6 | 0.00 | 0.00 | 0.00 | 49 | 1016.6 |
| 20260504140128 | 5 | 94 | 0.0 | 0.0 | 0.00 | 0.00 | 0.00 | 49 | 1016.6 |
| 20260504130556 | 3 | 69 | 0.0 | 0.0 | 0.00 | 0.00 | 0.00 | 50 | 1016.8 |
| 20260504110444 | 4 | 69 | 0.0 | 0.0 | 0.00 | 0.00 | 0.00 | 45 | 1016.2 |
| 20260504100406 | 4 | 77 | 0.0 | 0.0 | 0.00 | 0.00 | 0.00 | 43 | 1016.4 |
| 20260504081759 | 5 | 71 | 0.0 | 0.0 | 0.00 | 0.00 | 0.00 | 35 | 1016.2 |
| 20260504081256 | 5 | 74 | 0.0 | 1.6 | 0.00 | 0.00 | 0.00 | 35 | 1016.4 |
| 20260504080753 | 5 | 69 | 0.0 | 0.0 | 0.00 | 0.00 | 0.00 | 35 | 1016.4 |
| 20260504080249 | 5 | 69 | 0.0 | 0.0 | 0.00 | 0.00 | 0.00 | 38 | 1016.6 |
| 20260504070217 | 5 | 73 | 0.0 | 0.0 | 0.00 | 0.00 | 0.00 | 34 | 1016.9 |
| 20260504060137 | 5 | 69 | 0.0 | 0.0 | 0.00 | 0.00 | 0.00 | 35 | 1017.5 |
| 20260504050605 | 6 | 70 | 0.0 | 0.0 | 0.00 | 0.00 | 0.00 | 38 | 1017.7 |
| 20260504045559 | 6 | 70 | 0.0 | 0.0 | 0.00 | 0.00 | 0.00 | 39 | 1017.8 |
| 20260504045054 | 6 | 70 | 0.0 | 0.0 | 0.00 | 0.00 | 0.00 | 37 | 1017.8 |
| 20260504044552 | 6 | 71 | 0.0 | 0.0 | 0.00 | 0.00 | 0.00 | 36 | 1018.0 |
| 20260504044049 | 6 | 70 | 0.0 | 0.0 | 0.00 | 0.00 | 0.00 | 35 | 1017.8 |
| 20260504043546 | 6 | 70 | 0.0 | 0.0 | 0.00 | 0.00 | 0.00 | 38 | 1017.7 |
| 20260504043043 | 6 | 68 | 0.0 | 0.0 | 0.00 | 0.00 | 0.00 | 37 | 1018.0 |
| 20260504042540 | 6 | 67 | 0.0 | 0.0 | 0.00 | 0.00 | 0.00 | 36 | 1017.8 |
| 20260504042037 | 6 | 65 | 0.0 | 0.0 | 0.00 | 0.00 | 0.00 | 35 | 1017.7 |
| 20260504041533 | 6 | 65 | 0.0 | 0.0 | 0.00 | 0.00 | 0.00 | 36 | 1017.8 |
| 20260504041029 | 6 | 64 | 0.0 | 0.0 | 0.00 | 0.00 | 0.00 | 38 | 1017.8 |
| 20260504040527 | 7 | 65 | 0.0 | 0.0 | 0.00 | 0.00 | 0.00 | 35 | 1017.8 |